Martinsburg, WV

11:32 AM EST on December 14, 2019 (GMT -0500)
Eastern W Va Regional-Shepherd

Weather History for KMRB - October, 2019

Change the Weather History Date:

Saturday, October 5, 2019

  Actual Average Record
Temperature  
Mean Temperature 52 °F 58 °F  
Max Temperature 62 °F 69 °F 93 °F (1951)
Min Temperature 42 °F 46 °F 30 °F (1935)
Degree Days  
Heating Degree Days 13 8  
Month to date heating degree days 16 37  
Since 1 July heating degree days 28 128  
Cooling Degree Days 0 1  
Month to date cooling degree days 37 5  
Year to date cooling degree days 1280 890  
Growing Degree Days 2 (Base 50)    
Moisture  
Dew Point 42 °F    
Average Humidity 66    
Maximum Humidity 82    
Minimum Humidity 51    
Precipitation  
Precipitation 0.00 in 0.10 in 2.06 in (1948)
Month to date precipitation T 0.49  
Year to date precipitation 34.90 30.30  
Sea Level Pressure  
Sea Level Pressure 30.35 in    
Wind  
Wind Speed 5 mph ()    
Max Wind Speed 13 mph    
Max Gust Speed 18 mph    
Visibility 10.0 miles    
Events      
T = Trace of Precipitation, MM = Missing Value Source: Averaged Metar Reports

Daily Weather History Graph

Daily Weather History Graph

Search for Another Location

Airport or City:

Astronomy

Oct. 05, 2019 Rise Set
Actual Time 7:11 AM EDT 6:48 PM EDT
Civil Twilight 6:44 AM EDT 7:15 PM EDT
Nautical Twilight 6:13 AM EDT 7:46 PM EDT
Astronomical Twilight 5:42 AM EDT 8:17 PM EDT
Moon 2:33 PM EDT (10/5) No Moon Set
Length of Visible Light 12h 30m
Length of Day
11h 36m
Waxing Crescent, 50% of the Moon is Illuminated
Oct 5
Waxing Crescent
Oct 5
First Quarter
Oct 13
Full
Oct 21
Last Quarter
Oct 27
New

Hourly Weather History & Observations

Time (EDT) Temp. Windchill Dew Point Humidity Pressure Visibility Wind Dir Wind Speed Gust Speed Precip Events Conditions
12:53 AM 48.0 °F - 39.0 °F 71% 30.36 in 10.0 mi NNE 4.6 mph - N/A   Clear
1:53 AM 46.9 °F - 39.0 °F 74% 30.38 in 10.0 mi North 5.8 mph - N/A   Clear
2:53 AM 46.0 °F 43.1 °F 37.9 °F 73% 30.38 in 10.0 mi North 5.8 mph - N/A   Clear
3:53 AM 45.0 °F 41.8 °F 37.9 °F 76% 30.39 in 10.0 mi North 5.8 mph - N/A   Clear
4:53 AM 44.1 °F 41.5 °F 37.0 °F 76% 30.39 in 10.0 mi North 4.6 mph - N/A   Clear
5:53 AM 43.0 °F 40.3 °F 37.0 °F 80% 30.39 in 10.0 mi NNE 4.6 mph - N/A   Clear
6:53 AM 42.1 °F 39.2 °F 37.0 °F 82% 30.40 in 10.0 mi NNE 4.6 mph - N/A   Clear
7:53 AM 42.1 °F 39.2 °F 37.0 °F 82% 30.42 in 10.0 mi NNE 4.6 mph - N/A   Clear
8:53 AM 46.0 °F 44.8 °F 39.0 °F 76% 30.43 in 10.0 mi NNE 3.5 mph - N/A   Overcast
9:53 AM 50.0 °F - 37.9 °F 63% 30.43 in 10.0 mi Variable 3.5 mph - N/A   Mostly Cloudy
10:53 AM 52.0 °F - 39.0 °F 61% 30.42 in 10.0 mi Variable 3.5 mph - N/A   Mostly Cloudy
11:53 AM 55.0 °F - 39.9 °F 57% 30.41 in 10.0 mi Variable 3.5 mph - N/A   Overcast
12:53 PM 57.9 °F - 42.1 °F 56% 30.38 in 10.0 mi South 4.6 mph - N/A   Mostly Cloudy
1:53 PM 61.0 °F - 43.0 °F 52% 30.35 in 10.0 mi SSE 11.5 mph - N/A   Mostly Cloudy
2:53 PM 61.0 °F - 43.0 °F 52% 30.32 in 10.0 mi Variable 5.8 mph - N/A   Overcast
3:53 PM 61.0 °F - 44.1 °F 54% 30.31 in 10.0 mi SE 10.4 mph - N/A   Overcast
4:53 PM 61.0 °F - 44.1 °F 54% 30.30 in 10.0 mi ESE 6.9 mph - N/A   Overcast
5:53 PM 60.1 °F - 45.0 °F 57% 30.30 in 10.0 mi SSE 8.1 mph - N/A   Overcast
6:53 PM 60.1 °F - 46.0 °F 60% 30.28 in 10.0 mi SSE 6.9 mph - N/A   Overcast
7:53 PM 59.0 °F - 46.0 °F 62% 30.28 in 10.0 mi SSE 5.8 mph - N/A   Overcast
8:53 PM 59.0 °F - 46.9 °F 64% 30.28 in 10.0 mi South 4.6 mph - N/A   Overcast
9:53 PM 59.0 °F - 46.9 °F 64% 30.28 in 10.0 mi SSE 6.9 mph - N/A   Overcast
10:53 PM 60.1 °F - 46.9 °F 62% 30.27 in 10.0 mi SSE 8.1 mph - N/A   Overcast
11:53 PM 59.0 °F - 46.9 °F 64% 30.26 in 10.0 mi SSE 8.1 mph - N/A   Overcast